Location: Arboucave
(43.6130°N, 0.4343°W)
Time: 12:41:06
(UTC+00:00)

Landsat 7 - Pass Details

Date: 17 November 2025
Orbit: 680 x 682 km, 97.9° (Epoch: 06 December)

Event Time Altitude Azimuth Distance (km) Brightness Sun altitude
Rises 17:47:10 0° 171° (S) 3,028 7.2 -13.2°
Reaches altitude 10° 17:49:24 10° 173° (S) 2,117 6.4 -13.5°
Maximum altitude 17:54:01 72° 258° (WSW) 719 4.0 -14.4°
Drops below altitude 10° 17:58:41 10° 343° (NNW) 2,132 6.4 -15.2°
Sets 18:00:56 0° 346° (NNW) 3,052 7.2 -15.6°
